| time (UTC) | temp F | wind direction | speed MPH | gust MPH | rain 1hr in | rain 24hr in | rain mn in | humidity % | barometer mb |
| 20260903081907 | 67 | 159 | 0.0 | 0.0 | 0.00 | 0.00 | 0.00 | 99 | 1014.9 |
| 20260903081402 | 67 | 159 | 0.0 | 0.0 | 0.00 | 0.00 | 0.00 | 99 | 1014.9 |
| 20260903080859 | 67 | 162 | 0.0 | 0.0 | 0.00 | 0.00 | 0.00 | 99 | 1014.9 |
| 20260903080355 | 67 | 158 | 0.0 | 0.0 | 0.00 | 0.00 | 0.00 | 99 | 1014.2 |
| 20260903075855 | 67 | 158 | 0.0 | 0.0 | 0.00 | 0.00 | 0.00 | 99 | 1014.9 |
| 20260903075351 | 68 | 159 | 0.0 | 0.0 | 0.00 | 0.00 | 0.00 | 99 | 1014.5 |
| 20260903074844 | 68 | 157 | 0.0 | 0.0 | 0.00 | 0.00 | 0.00 | 99 | 1014.5 |
| 20260903074338 | 67 | 162 | 0.0 | 0.0 | 0.00 | 0.00 | 0.00 | 99 | 1014.9 |
| 20260903073834 | 67 | 157 | 0.0 | 0.0 | 0.00 | 0.00 | 0.00 | 99 | 1014.9 |
| 20260903073329 | 68 | 160 | 0.0 | 0.0 | 0.00 | 0.00 | 0.00 | 99 | 1014.9 |
| 20260903072825 | 67 | 160 | 0.0 | 0.0 | 0.00 | 0.00 | 0.00 | 99 | 1014.9 |
| 20260903072321 | 68 | 159 | 0.0 | 0.0 | 0.00 | 0.00 | 0.00 | 99 | 1014.9 |
| 20260903071818 | 68 | 159 | 0.0 | 0.0 | 0.00 | 0.00 | 0.00 | 99 | 1014.9 |
| 20260903071313 | 68 | 160 | 0.0 | 0.0 | 0.00 | 0.00 | 0.00 | 99 | 1015.2 |
| 20260903070808 | 68 | 160 | 0.0 | 0.0 | 0.00 | 0.00 | 0.00 | 99 | 1015.2 |
| 20260903070304 | 68 | 162 | 0.0 | 0.0 | 0.00 | 0.00 | 0.00 | 99 | 1014.9 |
| 20260903065759 | 68 | 160 | 0.0 | 0.0 | 0.00 | 0.00 | 0.00 | 99 | 1015.2 |
| 20260903065258 | 68 | 160 | 0.0 | 0.0 | 0.00 | 0.00 | 0.00 | 99 | 1015.2 |
| 20260903064757 | 68 | 161 | 0.0 | 0.0 | 0.00 | 0.00 | 0.00 | 99 | 1015.2 |
| 20260903064253 | 68 | 163 | 0.0 | 0.0 | 0.00 | 0.00 | 0.00 | 99 | 1015.2 |
| 20260903063749 | 68 | 160 | 0.0 | 0.0 | 0.00 | 0.00 | 0.00 | 99 | 1014.9 |
| 20260903063249 | 68 | 162 | 0.0 | 0.0 | 0.00 | 0.00 | 0.00 | 99 | 1015.2 |
| 20260903062745 | 67 | 158 | 0.0 | 0.0 | 0.00 | 0.00 | 0.00 | 99 | 1014.9 |
| 20260903062244 | 68 | 159 | 0.0 | 0.0 | 0.00 | 0.00 | 0.00 | 99 | 1014.9 |
| 20260903061741 | 68 | 160 | 0.0 | 0.0 | 0.00 | 0.00 | 0.00 | 99 | 1015.2 |
| 20260903061239 | 68 | 170 | 0.0 | 0.0 | 0.00 | 0.00 | 0.00 | 99 | 1014.9 |
| 20260903060736 | 68 | 158 | 0.0 | 0.0 | 0.00 | 0.00 | 0.00 | 99 | 1014.9 |
| 20260903060235 | 67 | 164 | 0.0 | 0.0 | 0.00 | 0.00 | 0.00 | 99 | 1015.2 |
| 20260903055732 | 67 | 160 | 0.0 | 0.0 | 0.00 | 0.00 | 0.00 | 99 | 1014.9 |
| 20260903055231 | 67 | 158 | 0.0 | 0.0 | 0.00 | 0.00 | 0.00 | 99 | 1014.9 |
| 20260903054726 | 67 | 160 | 0.0 | 0.0 | 0.00 | 0.00 | 0.00 | 99 | 1014.9 |
| 20260903054221 | 67 | 153 | 0.0 | 0.0 | 0.00 | 0.00 | 0.00 | 99 | 1014.9 |
| 20260903053718 | 67 | 158 | 0.0 | 0.0 | 0.00 | 0.00 | 0.00 | 99 | 1014.9 |
| 20260903053213 | 67 | 158 | 0.0 | 0.0 | 0.00 | 0.00 | 0.00 | 99 | 1014.9 |
| 20260903052709 | 68 | 159 | 0.0 | 0.0 | 0.00 | 0.00 | 0.00 | 99 | 1014.9 |
| 20260903052204 | 68 | 158 | 0.0 | 0.0 | 0.00 | 0.00 | 0.00 | 99 | 1014.9 |
| 20260903051704 | 68 | 158 | 0.0 | 0.0 | 0.00 | 0.00 | 0.00 | 99 | 1014.9 |
| 20260903051200 | 68 | 158 | 0.0 | 0.0 | 0.00 | 0.00 | 0.00 | 99 | 1014.9 |
| 20260903050656 | 68 | 160 | 0.0 | 0.0 | 0.00 | 0.00 | 0.00 | 99 | 1014.5 |
| 20260903050154 | 68 | 153 | 0.0 | 0.0 | 0.00 | 0.00 | 0.00 | 99 | 1014.9 |
| 20260903045650 | 68 | 158 | 0.0 | 0.0 | 0.00 | 0.00 | 0.00 | 99 | 1014.9 |
| 20260903045146 | 68 | 158 | 0.0 | 0.0 | 0.00 | 0.00 | 0.00 | 99 | 1014.9 |
| 20260903044642 | 68 | 158 | 0.0 | 0.0 | 0.00 | 0.00 | 0.00 | 99 | 1014.9 |
| 20260903044137 | 68 | 160 | 0.0 | 0.0 | 0.00 | 0.00 | 0.00 | 99 | 1014.9 |
| 20260903043634 | 68 | 159 | 0.0 | 0.0 | 0.00 | 0.00 | 0.00 | 99 | 1014.5 |
| 20260903043132 | 68 | 158 | 0.0 | 0.0 | 0.00 | 0.00 | 0.00 | 99 | 1014.5 |
| 20260903042626 | 68 | 158 | 0.0 | 0.0 | 0.00 | 0.00 | 0.00 | 99 | 1014.5 |
| 20260903042121 | 68 | 159 | 0.0 | 0.0 | 0.00 | 0.00 | 0.00 | 99 | 1014.9 |
| 20260903041618 | 68 | 156 | 0.0 | 0.0 | 0.00 | 0.00 | 0.00 | 99 | 1014.9 |
| 20260903041114 | 68 | 159 | 0.0 | 0.0 | 0.00 | 0.00 | 0.00 | 99 | 1014.9 |
| 20260903040612 | 68 | 159 | 0.0 | 0.0 | 0.00 | 0.00 | 0.00 | 99 | 1015.2 |
| 20260903040109 | 68 | 164 | 0.0 | 0.0 | 0.00 | 1.29 | 1.29 | 99 | 1015.6 |
| 20260903035604 | 69 | 158 | 0.0 | 0.0 | 0.00 | 1.29 | 1.29 | 99 | 1015.2 |
| 20260903035100 | 69 | 149 | 1.0 | 2.0 | 0.00 | 1.29 | 1.29 | 99 | 1015.6 |
| 20260903034554 | 68 | 158 | 0.0 | 0.0 | 0.00 | 1.29 | 1.29 | 99 | 1015.2 |
| 20260903034050 | 69 | 191 | 1.0 | 2.0 | 0.00 | 1.29 | 1.29 | 99 | 1014.9 |
| 20260903033544 | 69 | 161 | 0.0 | 0.0 | 0.00 | 1.29 | 1.29 | 99 | 1015.6 |
| 20260903033040 | 69 | 174 | 0.0 | 1.0 | 0.00 | 1.29 | 1.29 | 99 | 1015.2 |
| 20260903032535 | 69 | 163 | 0.0 | 0.0 | 0.00 | 1.29 | 1.29 | 99 | 1015.2 |
| 20260903032030 | 69 | 166 | 0.0 | 0.0 | 0.00 | 1.29 | 1.29 | 99 | 1015.2 |
| 20260903031530 | 69 | 174 | 0.0 | 0.0 | 0.00 | 1.29 | 1.29 | 99 | 1014.9 |
| 20260903031025 | 69 | 154 | 0.0 | 0.0 | 0.00 | 1.29 | 1.29 | 99 | 1014.9 |
| 20260903030521 | 69 | 212 | 0.0 | 0.0 | 0.00 | 1.29 | 1.29 | 99 | 1014.2 |
| 20260903030017 | 69 | 166 | 0.0 | 0.0 | 0.00 | 1.29 | 1.29 | 99 | 1013.9 |
| 20260903025512 | 69 | 175 | 1.0 | 1.0 | 0.00 | 1.29 | 1.29 | 99 | 1013.5 |
| 20260903025008 | 69 | 163 | 0.0 | 1.0 | 0.00 | 1.29 | 1.29 | 99 | 1013.9 |
| 20260903024507 | 69 | 130 | 4.0 | 6.0 | 0.00 | 1.29 | 1.29 | 99 | 1013.5 |
| 20260903024001 | 69 | 218 | 6.0 | 9.0 | 0.00 | 1.29 | 1.29 | 99 | 1013.5 |
| 20260903023457 | 70 | 124 | 2.0 | 2.0 | 0.00 | 1.29 | 1.29 | 99 | 1013.9 |
| 20260903022952 | 71 | 74 | 3.0 | 3.0 | 0.07 | 1.29 | 1.29 | 99 | 1013.9 |
| 20260903022451 | 71 | 180 | 1.0 | 2.0 | 0.07 | 1.29 | 1.29 | 99 | 1013.9 |
| 20260903021950 | 72 | 157 | 1.0 | 1.0 | 0.00 | 1.28 | 1.28 | 99 | 1014.5 |
| 20260903021446 | 72 | 148 | 1.0 | 1.0 | 0.00 | 1.28 | 1.28 | 99 | 1014.9 |
| 20260903020941 | 72 | 148 | 0.0 | 0.0 | 0.00 | 1.28 | 1.28 | 99 | 1015.2 |
| 20260903020436 | 72 | 162 | 0.0 | 0.0 | 0.05 | 1.28 | 1.28 | 99 | 1014.9 |
| 20260903015930 | 72 | 172 | 1.0 | 1.0 | 0.07 | 1.27 | 1.27 | 99 | 1014.9 |
| 20260903015427 | 72 | 172 | 1.0 | 2.0 | 0.19 | 1.27 | 1.27 | 99 | 1014.5 |
| 20260903014927 | 72 | 142 | 2.0 | 2.0 | 0.17 | 1.26 | 1.26 | 99 | 1014.2 |
| 20260903014426 | 72 | 166 | 2.0 | 3.0 | 0.12 | 1.24 | 1.24 | 99 | 1015.2 |
| 20260903013921 | 72 | 132 | 0.0 | 0.0 | 0.19 | 1.23 | 1.23 | 99 | 1015.6 |
| 20260903013421 | 72 | 201 | 2.0 | 2.0 | 0.12 | 1.21 | 1.21 | 99 | 1015.9 |
| 20260903012921 | 72 | 157 | 3.0 | 3.0 | 0.12 | 1.20 | 1.20 | 99 | 1015.9 |
| 20260903012420 | 73 | 155 | 2.0 | 2.0 | 0.14 | 1.19 | 1.19 | 99 | 1015.2 |
| 20260903011919 | 73 | 265 | 0.0 | 2.0 | 0.12 | 1.18 | 1.18 | 99 | 1014.9 |
| 20260903011414 | 73 | 155 | 3.0 | 5.0 | 0.17 | 1.17 | 1.17 | 99 | 1014.9 |
| 20260903010909 | 73 | 147 | 2.0 | 5.0 | 0.24 | 1.16 | 1.16 | 99 | 1014.2 |
| 20260903010405 | 73 | 153 | 1.0 | 1.0 | 0.24 | 1.14 | 1.14 | 99 | 1014.9 |
| 20260903005902 | 73 | 186 | 1.0 | 1.0 | 0.19 | 1.12 | 1.12 | 99 | 1015.9 |
| 20260903005358 | 74 | 170 | 1.0 | 1.0 | 0.07 | 1.10 | 1.10 | 99 | 1015.9 |
| 20260903004854 | 74 | 160 | 0.0 | 1.0 | 0.05 | 1.09 | 1.09 | 99 | 1016.2 |
| 20260903004349 | 75 | 165 | 0.0 | 0.0 | 0.12 | 1.09 | 1.09 | 99 | 1016.2 |
| 20260903003844 | 75 | 159 | 0.0 | 0.0 | 0.19 | 1.08 | 1.08 | 97 | 1015.9 |
| 20260903003338 | 75 | 167 | 0.0 | 0.0 | 0.19 | 1.07 | 1.07 | 96 | 1015.6 |
| 20260903002838 | 76 | 163 | 0.0 | 0.0 | 0.07 | 1.05 | 1.05 | 94 | 1015.6 |
| 20260903002333 | 76 | 155 | 0.0 | 0.0 | 0.00 | 1.04 | 1.04 | 93 | 1015.9 |
| 20260903001828 | 76 | 157 | 0.0 | 0.0 | 0.00 | 1.04 | 1.04 | 93 | 1015.9 |
| 20260903001323 | 76 | 163 | 0.0 | 0.0 | 0.00 | 1.04 | 1.04 | 93 | 1015.9 |
| 20260903000823 | 76 | 191 | 1.0 | 1.0 | 0.00 | 1.04 | 1.04 | 92 | 1015.6 |
| 20260903000319 | 76 | 171 | 2.0 | 3.0 | 0.00 | 1.04 | 1.04 | 92 | 1015.6 |
| 20260902235816 | 76 | 95 | 1.0 | 2.0 | 0.00 | 1.04 | 1.04 | 92 | 1015.2 |
| 20260902235312 | 76 | 162 | 0.0 | 0.0 | 0.00 | 1.04 | 1.04 | 93 | 1014.9 |
| 20260902234806 | 76 | 144 | 1.0 | 1.0 | 0.00 | 1.04 | 1.04 | 93 | 1014.9 |
| 20260902234305 | 76 | 131 | 0.0 | 1.0 | 0.00 | 1.04 | 1.04 | 92 | 1014.9 |
| 20260902233800 | 76 | 154 | 1.0 | 1.0 | 0.00 | 1.04 | 1.04 | 92 | 1014.5 |
| 20260902233259 | 76 | 153 | 4.0 | 5.0 | 0.00 | 1.04 | 1.04 | 92 | 1014.5 |
| 20260902232757 | 77 | 218 | 3.0 | 3.0 | 0.00 | 1.04 | 1.04 | 92 | 1014.9 |
| 20260902232252 | 77 | 176 | 0.0 | 0.0 | 0.00 | 1.04 | 1.04 | 92 | 1014.9 |
| 20260902231746 | 77 | 157 | 2.0 | 2.0 | 0.00 | 1.04 | 1.04 | 91 | 1014.9 |
| 20260902231242 | 77 | 140 | 1.0 | 1.0 | 0.00 | 1.04 | 1.04 | 91 | 1015.2 |
| 20260902230741 | 77 | 186 | 0.0 | 1.0 | 0.00 | 1.04 | 1.04 | 91 | 1015.6 |
| 20260902230240 | 77 | 230 | 4.0 | 5.0 | 0.00 | 1.04 | 1.04 | 90 | 1014.5 |
| 20260902225735 | 77 | 167 | 1.0 | 2.0 | 0.00 | 1.04 | 1.04 | 90 | 1014.5 |
| 20260902225230 | 77 | 164 | 3.0 | 3.0 | 0.00 | 1.04 | 1.04 | 90 | 1014.5 |
| 20260902224728 | 78 | 86 | 1.0 | 2.0 | 0.00 | 1.04 | 1.04 | 89 | 1014.5 |
| 20260902224224 | 78 | 144 | 4.0 | 7.0 | 0.00 | 1.04 | 1.04 | 89 | 1014.2 |
| 20260902223720 | 78 | 118 | 2.0 | 3.0 | 0.00 | 1.04 | 1.04 | 89 | 1013.9 |
| 20260902223220 | 78 | 174 | 5.0 | 6.0 | 0.00 | 1.04 | 1.04 | 88 | 1014.2 |
| 20260902222719 | 79 | 120 | 4.0 | 6.0 | 0.00 | 1.04 | 1.04 | 88 | 1014.2 |
| 20260902222218 | 79 | 178 | 2.0 | 3.0 | 0.00 | 1.04 | 1.04 | 87 | 1014.2 |
| 20260902221714 | 79 | 134 | 1.0 | 2.0 | 0.00 | 1.04 | 1.04 | 87 | 1014.2 |
| 20260902221213 | 79 | 178 | 3.0 | 5.0 | 0.00 | 1.04 | 1.04 | 87 | 1013.9 |
| 20260902220708 | 79 | 157 | 2.0 | 2.0 | 0.00 | 1.04 | 1.04 | 87 | 1013.5 |
| 20260902220202 | 80 | 183 | 3.0 | 3.0 | 0.00 | 1.04 | 1.04 | 87 | 1013.9 |
| 20260902215658 | 80 | 201 | 3.0 | 5.0 | 0.00 | 1.04 | 1.04 | 86 | 1014.2 |
| 20260902215153 | 80 | 192 | 3.0 | 3.0 | 0.00 | 1.04 | 1.04 | 86 | 1014.9 |
| 20260902214648 | 81 | 168 | 1.0 | 1.0 | 0.00 | 1.04 | 1.04 | 85 | 1015.2 |
| 20260902214147 | 81 | 165 | 2.0 | 2.0 | 0.00 | 1.04 | 1.04 | 85 | 1015.6 |
| 20260902213643 | 81 | 164 | 1.0 | 1.0 | 0.00 | 1.04 | 1.04 | 85 | 1015.9 |
| 20260902213143 | 81 | 163 | 1.0 | 1.0 | 0.00 | 1.04 | 1.04 | 85 | 1015.9 |
| 20260902212638 | 81 | 163 | 1.0 | 1.0 | 0.00 | 1.04 | 1.04 | 84 | 1016.2 |
| 20260902212134 | 82 | 177 | 1.0 | 1.0 | 0.00 | 1.04 | 1.04 | 84 | 1016.6 |
| 20260902211630 | 82 | 163 | 1.0 | 2.0 | 0.00 | 1.04 | 1.04 | 83 | 1016.2 |
| 20260902211125 | 82 | 162 | 0.0 | 1.0 | 0.00 | 1.04 | 1.04 | 84 | 1016.6 |
| 20260902210625 | 82 | 170 | 0.0 | 1.0 | 0.00 | 1.04 | 1.04 | 84 | 1016.6 |
| 20260902210120 | 82 | 163 | 0.0 | 0.0 | 0.00 | 1.04 | 1.04 | 83 | 1016.6 |
| 20260902205618 | 82 | 182 | 2.0 | 2.0 | 0.00 | 1.04 | 1.04 | 83 | 1016.6 |
| 20260902205114 | 82 | 177 | 1.0 | 1.0 | 0.00 | 1.04 | 1.04 | 82 | 1016.6 |
| 20260902204614 | 83 | 177 | 3.0 | 3.0 | 0.00 | 1.04 | 1.04 | 81 | 1016.6 |
| 20260902204109 | 83 | 183 | 1.0 | 1.0 | 0.00 | 1.04 | 1.04 | 81 | 1016.2 |
| 20260902203604 | 83 | 159 | 2.0 | 2.0 | 0.00 | 1.04 | 1.04 | 80 | 1016.2 |
| 20260902203104 | 83 | 139 | 1.0 | 2.0 | 0.00 | 1.04 | 1.04 | 80 | 1016.2 |
| 20260902202600 | 83 | 83 | 3.0 | 5.0 | 0.00 | 1.04 | 1.04 | 80 | 1016.6 |
| 20260902202056 | 84 | 213 | 3.0 | 6.0 | 0.00 | 1.04 | 1.04 | 79 | 1016.6 |
| 20260902201552 | 84 | 179 | 3.0 | 5.0 | 0.00 | 1.04 | 1.04 | 79 | 1016.2 |
| 20260902201050 | 84 | 197 | 2.0 | 2.0 | 0.00 | 1.04 | 1.04 | 78 | 1016.2 |
| 20260902200546 | 84 | 200 | 4.0 | 5.0 | 0.00 | 1.04 | 1.04 | 78 | 1016.2 |
| 20260902200042 | 85 | 172 | 3.0 | 3.0 | 0.00 | 1.04 | 1.04 | 77 | 1016.2 |
| 20260902195537 | 86 | 213 | 3.0 | 5.0 | 0.00 | 1.04 | 1.04 | 76 | 1015.9 |
| 20260902195037 | 85 | 197 | 3.0 | 5.0 | 0.00 | 1.04 | 1.04 | 74 | 1015.6 |
| 20260902194536 | 86 | 232 | 3.0 | 5.0 | 0.00 | 1.04 | 1.04 | 74 | 1015.9 |
| 20260902194032 | 86 | 135 | 2.0 | 2.0 | 0.00 | 1.04 | 1.04 | 73 | 1015.9 |
| 20260902193527 | 85 | 177 | 4.0 | 5.0 | 0.00 | 1.04 | 1.04 | 73 | 1015.9 |
| 20260902193027 | 85 | 194 | 2.0 | 2.0 | 0.00 | 1.04 | 1.04 | 74 | 1016.2 |
| 20260902192525 | 85 | 170 | 3.0 | 3.0 | 0.00 | 1.04 | 1.04 | 75 | 1016.2 |
| 20260902192024 | 86 | 152 | 1.0 | 2.0 | 0.00 | 1.04 | 1.04 | 73 | 1016.2 |
| 20260902191520 | 86 | 163 | 1.0 | 2.0 | 0.00 | 1.04 | 1.04 | 74 | 1016.2 |
| 20260902191014 | 86 | 177 | 3.0 | 5.0 | 0.00 | 1.04 | 1.04 | 74 | 1016.2 |
| 20260902190510 | 85 | 157 | 3.0 | 5.0 | 0.00 | 1.04 | 1.04 | 74 | 1016.6 |
| 20260902190005 | 85 | 166 | 3.0 | 3.0 | 0.00 | 1.04 | 1.04 | 75 | 1016.6 |
| 20260902185501 | 85 | 146 | 2.0 | 2.0 | 0.00 | 1.04 | 1.04 | 74 | 1016.6 |
| 20260902184956 | 84 | 167 | 1.0 | 1.0 | 0.00 | 1.04 | 1.04 | 75 | 1016.6 |
| 20260902184451 | 85 | 191 | 2.0 | 3.0 | 0.00 | 1.04 | 1.04 | 74 | 1016.6 |
| 20260902183947 | 85 | 192 | 2.0 | 2.0 | 0.00 | 1.04 | 1.04 | 73 | 1016.9 |
| 20260902183443 | 84 | 167 | 5.0 | 6.0 | 0.00 | 1.04 | 1.04 | 74 | 1016.9 |
| 20260902182939 | 83 | 203 | 1.0 | 2.0 | 0.00 | 1.04 | 1.04 | 75 | 1016.9 |
| 20260902182435 | 84 | 218 | 3.0 | 3.0 | 0.00 | 1.04 | 1.04 | 74 | 1017.3 |
| 20260902181931 | 85 | 311 | 3.0 | 5.0 | 0.00 | 1.04 | 1.04 | 72 | 1016.9 |
| 20260902181426 | 84 | 220 | 1.0 | 3.0 | 0.00 | 1.04 | 1.04 | 74 | 1016.9 |
| 20260902180920 | 84 | 211 | 3.0 | 5.0 | 0.00 | 1.04 | 1.04 | 74 | 1017.3 |
| 20260902180416 | 83 | 88 | 3.0 | 5.0 | 0.00 | 1.04 | 1.04 | 76 | 1016.9 |
| 20260902175911 | 83 | 154 | 2.0 | 3.0 | 0.00 | 1.04 | 1.04 | 76 | 1016.6 |
| 20260902175406 | 83 | 11 | 4.0 | 6.0 | 0.00 | 1.04 | 1.04 | 77 | 1016.9 |
| 20260902174902 | 82 | 224 | 5.0 | 6.0 | 0.00 | 1.04 | 1.04 | 78 | 1016.9 |
| 20260902174359 | 82 | 309 | 3.0 | 3.0 | 0.00 | 1.04 | 1.04 | 79 | 1016.6 |
| 20260902173854 | 82 | 107 | 3.0 | 3.0 | 0.00 | 1.04 | 1.04 | 81 | 1016.9 |
| 20260902173353 | 81 | 153 | 4.0 | 5.0 | 0.00 | 1.04 | 1.04 | 82 | 1017.3 |
| 20260902172849 | 81 | 138 | 2.0 | 5.0 | 0.00 | 1.04 | 1.04 | 83 | 1016.6 |
| 20260902172348 | 81 | 143 | 1.0 | 1.0 | 0.00 | 1.04 | 1.04 | 84 | 1016.9 |
| 20260902171843 | 81 | 222 | 2.0 | 3.0 | 0.00 | 1.04 | 1.04 | 85 | 1016.9 |
| 20260902171338 | 80 | 153 | 2.0 | 2.0 | 0.00 | 1.04 | 1.04 | 85 | 1016.9 |
| 20260902170835 | 80 | 135 | 1.0 | 2.0 | 0.00 | 1.04 | 1.04 | 88 | 1016.6 |
| 20260902170330 | 78 | 177 | 2.0 | 2.0 | 0.00 | 1.04 | 1.04 | 88 | 1016.9 |
| 20260902165826 | 77 | 174 | 3.0 | 5.0 | 0.00 | 1.04 | 1.04 | 88 | 1016.9 |
| 20260902165325 | 77 | 99 | 3.0 | 5.0 | 0.00 | 1.04 | 1.04 | 89 | 1017.3 |
| 20260902164819 | 77 | 182 | 3.0 | 3.0 | 0.00 | 1.04 | 1.04 | 88 | 1016.9 |
| 20260902164315 | 76 | 129 | 2.0 | 2.0 | 0.00 | 1.04 | 1.04 | 90 | 1016.9 |
| 20260902163809 | 75 | 210 | 7.0 | 10.0 | 0.00 | 1.04 | 1.04 | 90 | 1016.9 |
| 20260902163309 | 73 | 180 | 2.0 | 3.0 | 0.00 | 1.04 | 1.04 | 95 | 1016.9 |
| 20260902162807 | 73 | 177 | 1.0 | 2.0 | 0.00 | 1.04 | 1.04 | 96 | 1016.6 |
| 20260902162306 | 71 | 158 | 3.0 | 3.0 | 0.00 | 1.04 | 1.04 | 99 | 1016.9 |
| 20260902161802 | 71 | 210 | 5.0 | 6.0 | 0.00 | 1.04 | 1.04 | 99 | 1016.9 |
| 20260902161258 | 70 | 153 | 3.0 | 6.0 | 0.00 | 1.04 | 1.04 | 99 | 1016.9 |
| 20260902160754 | 70 | 65 | 4.0 | 6.0 | 0.00 | 1.04 | 1.04 | 99 | 1016.9 |
| 20260902160249 | 70 | 148 | 3.0 | 5.0 | 0.00 | 1.04 | 1.04 | 99 | 1016.9 |
| 20260902155747 | 69 | 197 | 5.0 | 8.0 | 0.00 | 1.04 | 1.04 | 99 | 1017.3 |
| 20260902155246 | 69 | 162 | 2.0 | 3.0 | 0.05 | 1.04 | 1.04 | 99 | 1017.3 |
| 20260902154741 | 68 | 170 | 4.0 | 6.0 | 0.12 | 1.04 | 1.04 | 99 | 1017.6 |
| 20260902154236 | 68 | 141 | 1.0 | 1.0 | 0.12 | 1.03 | 1.03 | 99 | 1018.3 |
| 20260902153735 | 68 | 156 | 0.0 | 1.0 | 0.07 | 1.01 | 1.01 | 99 | 1017.9 |
| 20260902153236 | 68 | 168 | 0.0 | 0.0 | 0.12 | 1.01 | 1.01 | 99 | 1017.9 |
| 20260902152731 | 68 | 225 | 1.0 | 1.0 | 0.17 | 1.00 | 1.00 | 99 | 1017.9 |
| 20260902152227 | 68 | 136 | 1.0 | 5.0 | 0.24 | 0.98 | 0.98 | 99 | 1018.6 |
| 20260902151722 | 68 | 130 | 2.0 | 2.0 | 0.17 | 0.96 | 0.96 | 99 | 1018.9 |
| 20260902151217 | 68 | 99 | 2.0 | 3.0 | 0.19 | 0.93 | 0.93 | 99 | 1019.3 |
| 20260902150712 | 68 | 114 | 3.0 | 5.0 | 0.38 | 0.93 | 0.93 | 99 | 1019.3 |
| 20260902150208 | 68 | 153 | 1.0 | 2.0 | 0.35 | 0.90 | 0.90 | 99 | 1019.6 |
| 20260902145707 | 69 | 172 | 2.0 | 2.0 | 0.54 | 0.86 | 0.86 | 99 | 1019.6 |
| 20260902145207 | 69 | 153 | 0.0 | 0.0 | 0.78 | 0.83 | 0.83 | 99 | 1019.6 |
| 20260902144703 | 69 | 149 | 1.0 | 2.0 | 0.85 | 0.77 | 0.77 | 99 | 1020.0 |
| 20260902144159 | 68 | 147 | 0.0 | 0.0 | 0.47 | 0.68 | 0.68 | 99 | 1020.6 |
| 20260902143653 | 68 | 172 | 0.0 | 0.0 | 0.35 | 0.63 | 0.63 | 99 | 1020.6 |
| 20260902143149 | 68 | 204 | 0.0 | 0.0 | 0.31 | 0.59 | 0.59 | 99 | 1018.9 |
| 20260902142645 | 68 | 158 | 0.0 | 0.0 | 0.24 | 0.57 | 0.57 | 99 | 1018.9 |
| 20260902142141 | 68 | 156 | 0.0 | 0.0 | 0.24 | 0.54 | 0.54 | 99 | 1019.3 |
| 20260902141640 | 68 | 143 | 0.0 | 0.0 | 0.24 | 0.52 | 0.52 | 99 | 1019.3 |
| 20260902141136 | 68 | 175 | 0.0 | 0.0 | 0.17 | 0.50 | 0.50 | 99 | 1018.9 |
| 20260902140631 | 68 | 186 | 0.0 | 0.0 | 0.17 | 0.48 | 0.48 | 99 | 1019.3 |
| 20260902140125 | 68 | 158 | 0.0 | 0.0 | 0.17 | 0.46 | 0.46 | 99 | 1019.3 |
| 20260902135624 | 68 | 157 | 0.0 | 0.0 | 1.16 | 0.45 | 0.45 | 99 | 1018.9 |
| 20260902135120 | 68 | 140 | 0.0 | 1.0 | 1.82 | 0.43 | 0.43 | 99 | 1019.3 |
| 20260902134615 | 68 | 162 | 0.0 | 0.0 | 0.94 | 0.22 | 0.22 | 99 | 1018.9 |
| 20260902134110 | 68 | 180 | 1.0 | 2.0 | 0.35 | 0.11 | 0.11 | 99 | 1018.9 |
| 20260902133604 | 68 | 173 | 0.0 | 0.0 | 0.14 | 0.06 | 0.06 | 99 | 1018.3 |
| 20260902133059 | 69 | 162 | 0.0 | 1.0 | 0.12 | 0.05 | 0.05 | 99 | 1018.6 |
| 20260902132554 | 69 | 158 | 0.0 | 0.0 | 0.17 | 0.04 | 0.04 | 99 | 1018.6 |
| 20260902132049 | 69 | 165 | 0.0 | 0.0 | 0.05 | 0.02 | 0.02 | 99 | 1018.6 |
| 20260902131545 | 69 | 192 | 1.0 | 1.0 | 0.07 | 0.01 | 0.01 | 99 | 1018.9 |
| 20260902131039 | 69 | 159 | 0.0 | 0.0 | 0.07 | 0.01 | 0.01 | 99 | 1018.9 |
| 20260902130536 | 69 | 160 | 0.0 | 0.0 | 0.00 | 0.00 | 0.00 | 99 | 1018.9 |
| 20260902130031 | 69 | 158 | 0.0 | 0.0 | 0.00 | 0.00 | 0.00 | 99 | 1018.6 |
| 20260902125527 | 69 | 167 | 0.0 | 0.0 | 0.00 | 0.00 | 0.00 | 99 | 1018.6 |
| 20260902125022 | 69 | 164 | 0.0 | 0.0 | 0.00 | 0.00 | 0.00 | 99 | 1018.3 |
| 20260902124518 | 69 | 162 | 0.0 | 0.0 | 0.00 | 0.00 | 0.00 | 99 | 1018.6 |
| 20260902124013 | 69 | 153 | 0.0 | 0.0 | 0.00 | 0.00 | 0.00 | 99 | 1018.3 |
| 20260902123509 | 69 | 167 | 0.0 | 0.0 | 0.00 | 0.00 | 0.00 | 99 | 1018.3 |
| 20260902123008 | 69 | 72 | 0.0 | 0.0 | 0.00 | 0.00 | 0.00 | 99 | 1018.3 |
| 20260902122503 | 69 | 165 | 0.0 | 0.0 | 0.00 | 0.00 | 0.00 | 99 | 1018.6 |
| 20260902121958 | 69 | 164 | 0.0 | 0.0 | 0.00 | 0.00 | 0.00 | 99 | 1018.3 |
| 20260902121454 | 69 | 162 | 0.0 | 0.0 | 0.00 | 0.00 | 0.00 | 99 | 1018.6 |
| 20260902120948 | 69 | 157 | 0.0 | 0.0 | 0.00 | 0.00 | 0.00 | 99 | 1017.9 |
| 20260902120444 | 68 | 159 | 0.0 | 0.0 | 0.00 | 0.00 | 0.00 | 99 | 1017.9 |
| 20260902115944 | 68 | 161 | 0.0 | 0.0 | 0.00 | 0.00 | 0.00 | 99 | 1017.9 |
| 20260902115441 | 68 | 167 | 0.0 | 0.0 | 0.00 | 0.00 | 0.00 | 99 | 1017.6 |
| 20260902114937 | 68 | 172 | 0.0 | 0.0 | 0.00 | 0.00 | 0.00 | 99 | 1017.9 |
| 20260902114432 | 68 | 168 | 0.0 | 1.0 | 0.00 | 0.00 | 0.00 | 99 | 1018.3 |
| 20260902113927 | 68 | 166 | 0.0 | 0.0 | 0.00 | 0.00 | 0.00 | 99 | 1017.6 |
| 20260902113423 | 68 | 174 | 0.0 | 0.0 | 0.00 | 0.00 | 0.00 | 99 | 1017.9 |
| 20260902112922 | 68 | 164 | 0.0 | 0.0 | 0.00 | 0.00 | 0.00 | 99 | 1017.9 |
| 20260902112418 | 68 | 173 | 0.0 | 0.0 | 0.00 | 0.00 | 0.00 | 99 | 1017.6 |
| 20260902111914 | 68 | 163 | 0.0 | 0.0 | 0.00 | 0.00 | 0.00 | 99 | 1017.9 |
| 20260902111411 | 68 | 175 | 0.0 | 0.0 | 0.00 | 0.00 | 0.00 | 99 | 1017.6 |
| 20260902110906 | 68 | 166 | 0.0 | 0.0 | 0.00 | 0.00 | 0.00 | 99 | 1017.6 |
| 20260902110402 | 68 | 126 | 0.0 | 1.0 | 0.00 | 0.00 | 0.00 | 99 | 1017.6 |
| 20260902105901 | 68 | 167 | 0.0 | 1.0 | 0.00 | 0.00 | 0.00 | 99 | 1017.6 |
| 20260902105356 | 68 | 163 | 0.0 | 0.0 | 0.00 | 0.00 | 0.00 | 99 | 1017.6 |
| 20260902104851 | 68 | 165 | 0.0 | 0.0 | 0.00 | 0.00 | 0.00 | 99 | 1017.6 |
| 20260902104348 | 68 | 244 | 0.0 | 0.0 | 0.00 | 0.00 | 0.00 | 99 | 1017.3 |
| 20260902103847 | 68 | 148 | 1.0 | 1.0 | 0.00 | 0.00 | 0.00 | 99 | 1017.3 |
| 20260902103342 | 68 | 161 | 0.0 | 1.0 | 0.00 | 0.00 | 0.00 | 99 | 1017.6 |
| 20260902102837 | 68 | 164 | 0.0 | 0.0 | 0.00 | 0.00 | 0.00 | 99 | 1017.6 |
| 20260902102335 | 68 | 156 | 1.0 | 1.0 | 0.00 | 0.00 | 0.00 | 99 | 1017.6 |
| 20260902101830 | 68 | 177 | 1.0 | 1.0 | 0.00 | 0.00 | 0.00 | 99 | 1017.9 |
| 20260902101325 | 68 | 167 | 1.0 | 1.0 | 0.00 | 0.00 | 0.00 | 99 | 1018.3 |
| 20260902100825 | 68 | 164 | 0.0 | 0.0 | 0.00 | 0.00 | 0.00 | 99 | 1018.3 |
| 20260902100324 | 68 | 173 | 0.0 | 0.0 | 0.00 | 0.00 | 0.00 | 99 | 1017.9 |
| 20260902095819 | 68 | 162 | 0.0 | 0.0 | 0.00 | 0.00 | 0.00 | 99 | 1017.9 |
| 20260902095314 | 68 | 176 | 0.0 | 0.0 | 0.00 | 0.00 | 0.00 | 99 | 1018.3 |
| 20260902094814 | 68 | 159 | 0.0 | 0.0 | 0.00 | 0.00 | 0.00 | 99 | 1018.3 |
| 20260902094310 | 68 | 160 | 0.0 | 0.0 | 0.00 | 0.00 | 0.00 | 99 | 1018.3 |
| 20260902093810 | 68 | 161 | 0.0 | 0.0 | 0.00 | 0.00 | 0.00 | 99 | 1018.3 |
| 20260902093305 | 67 | 164 | 0.0 | 0.0 | 0.00 | 0.00 | 0.00 | 99 | 1018.3 |
| 20260902092804 | 67 | 94 | 1.0 | 1.0 | 0.00 | 0.00 | 0.00 | 99 | 1018.3 |
| 20260902092259 | 67 | 166 | 0.0 | 0.0 | 0.00 | 0.00 | 0.00 | 99 | 1018.3 |
| 20260902091759 | 67 | 162 | 0.0 | 0.0 | 0.00 | 0.00 | 0.00 | 99 | 1017.9 |
| 20260902091255 | 67 | 166 | 0.0 | 0.0 | 0.00 | 0.00 | 0.00 | 99 | 1018.3 |
| 20260902090751 | 67 | 168 | 0.0 | 0.0 | 0.00 | 0.00 | 0.00 | 99 | 1017.9 |
| 20260902090250 | 67 | 164 | 0.0 | 0.0 | 0.00 | 0.00 | 0.00 | 99 | 1017.9 |
| 20260902085744 | 67 | 159 | 0.0 | 0.0 | 0.00 | 0.00 | 0.00 | 99 | 1017.9 |
| 20260902085240 | 67 | 164 | 0.0 | 0.0 | 0.00 | 0.00 | 0.00 | 99 | 1018.3 |
| 20260902084735 | 67 | 162 | 0.0 | 0.0 | 0.00 | 0.00 | 0.00 | 99 | 1018.3 |
| 20260902084231 | 67 | 154 | 0.0 | 0.0 | 0.00 | 0.00 | 0.00 | 99 | 1018.3 |
| 20260902083731 | 67 | 162 | 0.0 | 0.0 | 0.00 | 0.00 | 0.00 | 99 | 1018.3 |
| 20260902083226 | 67 | 162 | 0.0 | 0.0 | 0.00 | 0.00 | 0.00 | 99 | 1018.3 |
| 20260902082721 | 67 | 160 | 0.0 | 0.0 | 0.00 | 0.00 | 0.00 | 99 | 1018.6 |
| 20260902082218 | 67 | 167 | 0.0 | 0.0 | 0.00 | 0.00 | 0.00 | 99 | 1018.6 |